カタログに戻る

STARLINK-34139

運用中通信VLEO
NORAD 63975·PAYLOAD·🇺🇸 United States

打ち上げ May 13, 2025 から Cape Canaveral Space Force Station

Loading…

次のパス (今後24時間)

TLE

最新Source: CelesTrak SupGP

元期: Sep 14, 2026, 21:04 UTC

1 63975C 25099Z   26257.87826389  .00002424  00000+0  87803-4 0  2576
2 63975  43.0022 184.4405 0001310 259.3821 285.4136 15.27576877    19

AllMySatでSTARLINK-34139をリアルタイム追跡

Download on the App Store